{"data":{"norad_id":68152,"intl_designator":"2026-049L","name":"STARLINK-37049","alt_names":[],"object_type":"PAYLOAD","status":"ACTIVE","operator":null,"country":"US","launch_date":"2026-03-13","launch_site_code":"AFWTR","launch_vehicle":null,"mission":null,"orbit_class":"UNKNOWN","rcs_meters":null,"size_class":null,"mass_kg":null,"dimensions":null,"purposes":["comms"],"wikipedia_slug":null,"has_3d_model":false,"image_url":null,"decayed_at":null,"tle_current":{"epoch":"2026-05-25T01:10:13.980288Z","epoch_age_seconds":81046,"freshness":"FRESH","line1":"1 68152U 26049L   26145.04877292  .00011023  00000+0  34324-3 0  9995","line2":"2 68152  97.2847 166.7708 0000775  79.1801 280.9529 15.33448262 11354","mean_motion":15.33448262,"eccentricity":7.75e-5,"inclination_deg":97.2847,"raan_deg":166.7708,"arg_perigee_deg":79.1801,"mean_anomaly_deg":280.9529,"bstar":0.00034324,"rev_number":1135,"period_min":93.906004896564,"perigee_km":465.00308461699,"apogee_km":466.0638535397,"semimajor_km":6843.6704690783,"source":"CELESTRAK","updated_at":"2026-05-25T13:38:21.848545Z"}}}